CW8839 Weather Reports


time (UTC)temp
F
wind
direction
speed
knots
gust
knots
rain 1hr
in
rain 24hr
in
rain mn
in
humidity
%
barometer
mb
20260510044923 50 51 0.0 0.0 0.00 0.22 0.22 94 1011.1
20260510044455 50 55 0.0 1.7 0.00 0.22 0.22 94 1011.1
20260510043924 51 63 0.0 2.6 0.00 0.22 0.22 94 1011.1
20260510043435 51 64 1.7 2.6 0.00 0.22 0.22 94 1011.1
20260510042928 51 339 1.7 2.6 0.00 0.22 0.22 94 1011.2
20260510042416 51 345 0.0 2.6 0.00 0.22 0.22 94 1011.2
20260510041926 51 345 0.0 2.6 0.00 0.22 0.22 94 1011.1
20260510041439 51 345 1.7 2.6 0.00 0.22 0.22 95 1011.1
20260510040930 51 329 0.9 2.6 0.00 0.22 0.22 95 1011.2
20260510040423 51 297 1.7 2.6 0.00 0.22 0.22 95 1011.2
20260510035919 51 296 0.0 6.1 0.00 0.22 0.22 95 1011.4
20260510035421 51 296 1.7 6.1 0.00 0.22 0.22 95 1011.4
20260510034927 50 315 2.6 3.5 0.00 0.22 0.22 95 1011.5
20260510034439 50 344 0.9 3.5 0.00 0.22 0.22 94 1011.0
20260510033949 49 49 1.7 7.0 0.00 0.22 0.22 94 1010.9
20260510033420 49 355 1.7 7.0 0.00 0.22 0.22 93 1010.9
20260510032932 48 360 3.5 4.3 0.00 0.22 0.22 93 1010.9
20260510032444 48 360 1.7 7.0 0.00 0.22 0.22 92 1010.6
20260510031933 48 163 3.5 7.0 0.00 0.22 0.22 92 1010.5
20260510031419 48 144 3.5 5.2 0.00 0.22 0.22 92 1010.4
20260510030931 48 150 1.7 5.2 0.00 0.22 0.22 92 1010.4
20260510030421 48 157 1.7 4.3 0.00 0.22 0.22 92 1010.4
20260510025929 48 194 0.9 3.5 0.00 0.22 0.22 92 1010.4
20260510025421 48 211 0.9 3.5 0.00 0.22 0.22 92 1010.4
20260510024931 48 243 0.0 3.5 0.00 0.22 0.22 91 1010.4
20260510024423 49 182 0.9 2.6 0.00 0.22 0.22 91 1010.4
20260510023934 48 181 0.0 1.7 0.00 0.22 0.22 91 1010.3
20260510023420 49 181 0.0 0.9 0.00 0.22 0.22 90 1010.3
20260510022932 49 181 0.9 1.7 0.00 0.22 0.22 90 1010.2
20260510022422 49 181 0.9 1.7 0.00 0.22 0.22 89 1010.1
20260510021933 49 181 0.0 0.9 0.00 0.22 0.22 89 1010.1
20260510021425 49 181 0.0 1.7 0.00 0.22 0.22 89 1010.0
20260510020935 49 181 0.0 1.7 0.00 0.22 0.22 89 1010.0
20260510020428 49 181 0.0 1.7 0.00 0.22 0.22 88 1010.0
20260510015930 50 181 0.0 1.7 0.00 0.22 0.22 88 1010.0
20260510015421 50 181 0.0 1.7 0.00 0.22 0.22 88 1009.9
20260510014927 50 181 0.0 1.7 0.00 0.22 0.22 87 1009.8
20260510014418 50 182 0.0 1.7 0.00 0.22 0.22 87 1009.7
20260510013928 50 182 0.9 1.7 0.00 0.22 0.22 87 1009.7
20260510013439 51 183 0.9 1.7 0.00 0.22 0.22 87 1009.6
20260510012930 51 184 0.0 0.9 0.00 0.22 0.22 87 1009.6
20260510012442 51 186 0.0 0.9 0.00 0.22 0.22 88 1009.6
20260510011932 51 190 0.0 2.6 0.00 0.22 0.22 88 1009.5
20260510011418 51 189 0.9 2.6 0.00 0.22 0.22 89 1009.4
20260510010930 51 189 0.0 1.7 0.00 0.22 0.22 88 1009.2
20260510010441 51 185 0.9 2.6 0.00 0.22 0.22 88 1009.3
20260510005928 52 185 0.0 2.6 0.00 0.22 0.22 88 1009.4
20260510005440 52 185 0.9 2.6 0.00 0.22 0.22 87 1009.3
20260510004933 52 209 0.9 5.2 0.00 0.22 0.22 87 1009.2
20260510004442 53 205 1.7 5.2 0.00 0.22 0.22 88 1009.0
20260510003949 53 202 1.7 5.2 0.00 0.22 0.22 87 1009.0
20260510003420 54 214 3.5 5.2 0.00 0.22 0.22 87 1008.9
20260510002932 54 233 2.6 5.2 0.00 0.22 0.22 86 1008.9
20260510002419 54 157 1.7 9.6 0.00 0.22 0.22 87 1008.9
20260510001929 54 203 5.2 9.6 0.00 0.22 0.22 86 1008.9
20260510001440 55 182 3.5 10.4 0.00 0.22 0.22 86 1008.8
20260510000951 55 152 0.9 5.2 0.00 0.22 0.22 84 1008.7
20260510000418 56 154 1.7 6.1 0.00 0.22 0.22 83 1008.6
20260509235919 57 151 3.5 6.1 0.00 0.22 0.22 81 1008.5
20260509235430 58 169 3.5 7.0 0.00 0.22 0.22 79 1008.5
20260509234920 59 238 3.5 7.0 0.00 0.22 0.22 75 1008.5
20260509234431 60 209 1.7 7.8 0.00 0.22 0.22 75 1008.4
20260509233943 60 178 1.7 8.7 0.00 0.22 0.22 72 1008.4
20260509233434 61 146 3.5 9.6 0.00 0.22 0.22 67 1008.4
20260509232924 62 141 4.3 9.6 0.00 0.22 0.22 64 1008.4
20260509232432 62 160 2.6 11.3 0.00 0.22 0.22 66 1008.4
20260509231943 62 319 1.7 12.2 0.00 0.22 0.22 65 1008.3
20260509231433 61 150 7.0 12.2 0.00 0.22 0.22 65 1008.4
20260509230925 60 230 4.3 10.4 0.00 0.22 0.22 75 1008.4
20260509230417 61 169 3.5 10.4 0.00 0.22 0.22 71 1008.3
20260509225919 63 163 2.6 8.7 0.00 0.22 0.22 64 1008.3
20260509225431 64 208 2.6 13.0 0.00 0.22 0.22 57 1008.4
20260509224939 64 235 4.3 13.0 0.00 0.22 0.22 60 1008.5
20260509224429 64 193 4.3 8.7 0.00 0.22 0.22 59 1008.6
20260509223922 64 317 4.3 10.4 0.00 0.22 0.22 58 1008.6
20260509223435 64 248 2.6 10.4 0.00 0.22 0.22 61 1008.6
20260509222926 64 188 4.3 8.7 0.00 0.22 0.22 62 1008.7
20260509222457 65 231 5.2 7.8 0.00 0.22 0.22 62 1008.7
20260509221928 65 191 2.6 10.4 0.00 0.22 0.22 66 1008.7
20260509221420 65 211 4.3 10.4 0.00 0.22 0.22 61 1008.7
20260509220927 66 210 5.2 13.9 0.00 0.22 0.22 56 1008.7
20260509220420 66 255 5.2 13.9 0.00 0.22 0.22 55 1008.6
20260509215947 66 184 2.6 8.7 0.00 0.22 0.22 61 1008.5
20260509215418 67 137 3.5 7.0 0.00 0.22 0.22 55 1008.6
20260509214929 67 212 4.3 10.4 0.00 0.22 0.22 56 1008.7
20260509214440 66 193 4.3 10.4 0.00 0.22 0.22 55 1008.9
20260509213952 66 202 4.3 14.8 0.00 0.22 0.22 57 1008.8
20260509213418 66 192 5.2 14.8 0.00 0.22 0.22 58 1008.8
20260509212930 66 200 6.1 10.4 0.00 0.22 0.22 53 1008.9
20260509212440 67 257 3.5 9.6 0.00 0.22 0.22 57 1008.8
20260509211930 67 157 3.5 9.6 0.00 0.22 0.22 59 1008.8
20260509211422 66 256 5.2 13.0 0.00 0.22 0.22 57 1008.6
20260509210933 67 169 4.3 13.0 0.00 0.22 0.22 56 1008.7
20260509210426 67 263 3.5 15.6 0.00 0.22 0.22 55 1008.7
20260509205932 67 185 4.3 15.6 0.00 0.22 0.22 53 1008.8
20260509205418 66 180 7.8 14.8 0.00 0.22 0.22 59 1008.8
20260509204930 66 211 7.8 12.2 0.00 0.22 0.22 55 1008.9
20260509204422 67 122 5.2 10.4 0.00 0.22 0.22 57 1008.8
20260509203932 67 59 2.6 6.1 0.00 0.22 0.22 58 1008.9
20260509203423 65 329 0.9 6.1 0.00 0.22 0.22 59 1009.0
20260509202935 65 225 2.6 9.6 0.00 0.22 0.22 61 1008.9
20260509202428 66 257 3.5 10.4 0.00 0.22 0.22 58 1009.0
20260509201937 65 306 5.2 11.3 0.00 0.22 0.22 60 1009.1
20260509201423 66 279 3.5 15.6 0.00 0.22 0.22 59 1009.1
20260509200934 66 156 7.0 15.6 0.00 0.22 0.22 60 1009.0
20260509200423 66 153 5.2 8.7 0.00 0.22 0.22 61 1009.1
20260509195929 65 216 3.5 9.6 0.00 0.22 0.22 62 1009.2
20260509195422 64 79 4.3 9.6 0.00 0.22 0.22 60 1009.4
20260509194934 64 242 2.6 8.7 0.00 0.22 0.22 61 1009.4
20260509194423 64 180 1.7 7.8 0.00 0.22 0.22 64 1009.4
20260509193933 65 208 3.5 8.7 0.00 0.22 0.22 61 1009.5
20260509193424 64 257 2.6 6.1 0.00 0.22 0.22 67 1009.7
20260509192950 63 300 3.5 5.2 0.00 0.22 0.22 66 1009.7
20260509192420 64 299 0.9 5.2 0.00 0.22 0.22 68 1009.8
20260509191930 63 343 1.7 5.2 0.00 0.22 0.22 68 1009.8
20260509191420 62 169 1.7 7.8 0.00 0.22 0.22 71 1009.9
20260509190952 62 192 1.7 7.8 0.00 0.22 0.22 68 1009.9
20260509190423 62 194 3.5 7.0 0.00 0.22 0.22 68 1010.0
20260509185931 62 148 3.5 7.8 0.00 0.22 0.22 68 1010.0
20260509185419 62 171 3.5 7.0 0.00 0.22 0.22 70 1010.1
20260509184930 62 319 1.7 6.1 0.00 0.22 0.22 72 1010.0
20260509184442 62 342 0.9 8.7 0.00 0.22 0.22 71 1010.1
20260509183932 62 323 2.6 8.7 0.00 0.22 0.22 69 1010.1
20260509183423 63 284 1.7 8.7 0.00 0.22 0.22 74 1010.1
20260509182933 62 208 4.3 8.7 0.00 0.22 0.22 68 1010.1
20260509182424 62 128 6.1 8.7 0.00 0.22 0.22 67 1010.1
20260509181949 62 198 4.3 13.0 0.00 0.22 0.22 67 1010.1
20260509181440 61 309 5.2 13.0 0.00 0.22 0.22 71 1010.2
20260509180931 62 171 3.5 9.6 0.00 0.22 0.22 71 1010.2
20260509180442 61 134 2.6 7.0 0.00 0.22 0.22 72 1010.2
20260509175917 60 192 3.5 7.0 0.00 0.22 0.22 73 1010.3
20260509175427 60 146 3.5 7.0 0.00 0.22 0.22 76 1010.3
20260509174919 60 213 2.6 8.7 0.00 0.22 0.22 77 1010.3
20260509174449 59 153 3.5 8.7 0.00 0.22 0.22 76 1010.3
20260509173935 59 143 6.1 13.0 0.00 0.22 0.22 75 1010.4
20260509173427 58 131 5.2 13.0 0.00 0.22 0.22 78 1010.3
20260509172918 58 159 4.3 8.7 0.00 0.22 0.22 77 1010.3
20260509172447 58 238 4.3 8.7 0.00 0.22 0.22 79 1010.2
20260509171956 58 139 1.7 8.7 0.00 0.22 0.22 79 1010.1
20260509171427 59 190 5.2 13.9 0.00 0.22 0.22 80 1010.1
20260509170918 58 186 7.0 13.9 0.00 0.22 0.22 84 1010.0
20260509170424 58 126 3.5 12.2 0.00 0.22 0.22 81 1010.0
20260509165924 57 231 3.5 8.7 0.00 0.22 0.22 84 1010.1
20260509165432 57 148 2.6 7.0 0.01 0.22 0.22 86 1010.0
20260509164923 56 161 2.6 7.8 0.01 0.22 0.22 89 1009.9
20260509164435 55 142 4.3 7.8 0.01 0.22 0.22 90 1009.9
20260509163926 55 153 4.3 7.0 0.01 0.22 0.22 89 1009.9
20260509163419 55 171 3.5 7.0 0.01 0.22 0.22 89 1010.0
20260509162929 55 182 3.5 7.0 0.01 0.22 0.22 90 1010.1
20260509162456 55 161 2.6 6.1 0.01 0.22 0.22 90 1010.1
20260509161926 54 161 2.6 6.1 0.01 0.22 0.22 91 1010.0
20260509161419 54 195 2.6 4.3 0.01 0.22 0.22 90 1010.0
20260509160930 54 172 0.9 6.1 0.01 0.22 0.22 90 1009.9
20260509160419 54 175 2.6 7.0 0.01 0.22 0.22 90 1009.9
20260509155923 54 152 2.6 7.0 0.01 0.22 0.22 89 1010.0
20260509155446 54 165 3.5 7.0 0.00 0.21 0.21 89 1010.1
20260509154917 54 160 1.7 6.1 0.00 0.21 0.21 89 1010.0
20260509154425 54 163 3.5 8.7 0.00 0.21 0.21 89 1010.1
20260509153955 54 153 5.2 8.7 0.00 0.21 0.21 88 1010.1
20260509153427 55 360 3.5 12.2 0.00 0.21 0.21 89 1010.0
20260509152918 55 360 7.0 12.2 0.00 0.21 0.21 89 1010.0
20260509152429 55 157 4.3 10.4 0.00 0.21 0.21 89 1010.0
20260509151938 55 166 4.3 8.7 0.00 0.21 0.21 90 1009.9
20260509151423 55 151 4.3 9.6 0.00 0.21 0.21 91 1009.9
20260509150932 55 122 2.6 9.6 0.01 0.21 0.21 92 1010.0
20260509150442 54 151 5.2 9.6 0.01 0.21 0.21 94 1010.1
20260509145936 53 168 4.3 7.8 0.01 0.21 0.21 94 1010.2
20260509145425 53 123 2.6 5.2 0.01 0.21 0.21 94 1010.3
20260509144917 52 161 2.6 5.2 0.01 0.21 0.21 94 1010.4
20260509144426 52 182 1.7 6.1 0.01 0.21 0.21 94 1010.5
20260509143917 52 180 2.6 6.1 0.01 0.21 0.21 94 1010.5
20260509143424 52 189 2.6 6.1 0.01 0.21 0.21 94 1010.5
20260509142935 52 162 3.5 6.1 0.02 0.21 0.21 94 1010.4
20260509142426 52 183 2.6 4.3 0.02 0.21 0.21 94 1010.4
20260509141937 52 170 2.6 8.7 0.02 0.21 0.21 94 1010.5
20260509141426 52 147 2.6 8.7 0.03 0.21 0.21 94 1010.5
20260509140938 52 132 1.7 7.8 0.02 0.20 0.20 94 1010.5
20260509140428 51 138 1.7 7.8 0.02 0.20 0.20 94 1010.6
20260509135931 51 156 1.7 12.2 0.02 0.20 0.20 94 1010.6
20260509135439 51 144 3.5 12.2 0.03 0.20 0.20 94 1010.6
20260509134929 51 180 2.6 7.8 0.03 0.20 0.20 94 1010.6
20260509134420 51 125 4.3 7.8 0.04 0.20 0.20 94 1010.7
20260509133932 51 215 1.7 5.2 0.04 0.20 0.20 94 1010.7
20260509133422 51 167 2.6 5.2 0.05 0.20 0.20 95 1010.8
20260509132931 51 202 0.9 4.3 0.05 0.19 0.19 94 1010.7
20260509132422 51 165 1.7 6.1 0.05 0.19 0.19 94 1010.7
20260509131929 51 167 2.6 6.1 0.05 0.19 0.19 95 1010.7
20260509131422 51 152 1.7 7.0 0.05 0.18 0.18 95 1010.7
20260509130932 51 155 3.5 7.0 0.06 0.18 0.18 95 1010.7
20260509130423 51 180 2.6 6.1 0.06 0.18 0.18 95 1010.8
20260509125929 51 153 2.6 5.2 0.07 0.18 0.18 95 1010.8
20260509125421 51 127 1.7 7.0 0.07 0.17 0.17 95 1010.8
20260509124934 51 142 3.5 7.0 0.07 0.17 0.17 95 1010.8
20260509124423 50 200 2.6 5.2 0.07 0.16 0.16 95 1010.9
20260509123936 50 140 1.7 3.5 0.07 0.16 0.16 95 1010.8
20260509123424 50 150 1.7 5.2 0.07 0.15 0.15 95 1010.9
20260509122933 50 142 2.6 5.2 0.06 0.14 0.14 95 1010.9
20260509122425 50 104 3.5 6.1 0.06 0.14 0.14 95 1010.9
20260509121932 50 192 1.7 8.7 0.07 0.14 0.14 95 1010.9
20260509121444 50 198 3.5 8.7 0.07 0.13 0.13 95 1010.9
20260509120934 50 148 1.7 6.1 0.06 0.12 0.12 95 1010.9
20260509120447 50 170 1.7 6.1 0.06 0.12 0.12 95 1010.9
20260509115929 50 215 2.6 6.1 0.05 0.11 0.11 94 1010.9
20260509115420 50 192 2.6 6.1 0.04 0.10 0.10 94 1010.9
20260509114931 50 172 2.6 7.0 0.04 0.10 0.10 94 1010.9
20260509114441 50 163 1.7 5.2 0.03 0.09 0.09 94 1010.8
20260509113929 50 240 3.5 8.7 0.02 0.08 0.08 94 1010.8
20260509113421 50 150 3.5 8.7 0.02 0.08 0.08 94 1010.7
20260509112931 50 142 2.6 6.1 0.02 0.08 0.08 94 1010.7
20260509112422 50 119 3.5 6.1 0.02 0.08 0.08 94 1010.8
20260509111928 50 163 1.7 5.2 0.01 0.07 0.07 94 1010.8
20260509111420 50 153 2.6 5.2 0.00 0.06 0.06 94 1010.7
20260509110931 50 152 1.7 5.2 0.00 0.06 0.06 94 1010.7
20260509110423 50 125 2.6 5.2 0.00 0.06 0.06 94 1010.7
20260509105929 49 128 1.7 3.5 0.00 0.06 0.06 93 1010.6
20260509105420 50 128 1.7 4.3 0.00 0.06 0.06 93 1010.6
20260509104932 50 136 1.7 6.1 0.01 0.06 0.06 93 1010.5
20260509104444 50 134 2.6 7.0 0.02 0.06 0.06 93 1010.5
20260509103929 50 126 2.6 7.0 0.02 0.06 0.06 93 1010.5
20260509103420 50 138 1.7 4.3 0.02 0.06 0.06 93 1010.5
20260509102931 50 138 2.6 4.3 0.02 0.06 0.06 93 1010.5
20260509102422 50 159 2.6 5.2 0.02 0.06 0.06 93 1010.5
20260509101934 50 142 2.6 4.3 0.03 0.06 0.06 93 1010.5
20260509101425 50 140 2.6 3.5 0.03 0.06 0.06 93 1010.5
20260509100936 50 161 2.6 6.1 0.03 0.06 0.06 92 1010.6
20260509100427 50 132 2.6 6.1 0.04 0.06 0.06 92 1010.6
20260509095926 50 149 1.7 4.3 0.04 0.06 0.06 92 1010.6
20260509095418 50 153 1.7 4.3 0.04 0.06 0.06 92 1010.7
20260509094928 50 149 1.7 4.3 0.03 0.05 0.05 92 1010.7
20260509094418 50 142 2.6 6.1 0.02 0.04 0.04 91 1010.8
20260509093932 50 135 2.6 6.1 0.02 0.04 0.04 91 1010.8
20260509093421 50 149 2.6 6.1 0.03 0.04 0.04 91 1010.9
20260509092934 50 105 2.6 6.1 0.03 0.04 0.04 91 1010.9
20260509092424 50 182 2.6 7.0 0.02 0.03 0.03 91 1010.9
20260509091935 50 183 3.5 8.7 0.03 0.03 0.03 91 1010.9
20260509091423 50 202 3.5 8.7 0.03 0.03 0.03 91 1011.0
20260509090934 50 153 2.6 8.7 0.03 0.03 0.03 91 1011.0
20260509090426 50 138 3.5 8.7 0.02 0.02 0.02 91 1011.1
20260509085933 50 151 4.3 6.1 0.02 0.02 0.02 91 1011.2
20260509085425 50 178 2.6 7.0 0.02 0.02 0.02 91 1011.2
20260509084936 50 259 2.6 7.0 0.02 0.02 0.02 90 1011.2
20260509084426 50 155 2.6 7.0 0.02 0.02 0.02 90 1011.3
20260509083939 50 153 3.5 5.2 0.02 0.02 0.02 90 1011.4
20260509083423 50 210 3.5 7.8 0.01 0.01 0.01 89 1011.5
20260509082934 50 268 2.6 7.8 0.01 0.01 0.01 89 1011.4
20260509082424 50 140 3.5 8.7 0.00 0.00 0.00 89 1011.4
20260509081935 50 148 3.5 8.7 0.00 0.00 0.00 89 1011.4
20260509081425 50 190 3.5 6.1 0.00 0.00 0.00 89 1011.4
20260509080916 50 250 2.6 5.2 0.00 0.00 0.00 90 1011.2
20260509080426 49 189 2.6 7.8 0.00 0.00 0.00 90 1011.3
20260509075950 49 154 1.7 8.7 0.00 0.00 0.00 92 1011.1
20260509075436 49 169 2.6 8.7 0.00 0.00 0.00 92 1011.0
20260509074926 49 294 2.6 8.7 0.00 0.00 0.00 92 1010.8
20260509074438 49 212 2.6 8.7 0.00 0.00 0.00 92 1010.7
20260509073926 49 342 0.9 2.6 0.00 0.00 0.00 92 1010.6
20260509073417 49 315 0.9 1.7 0.00 0.00 0.00 92 1010.5
20260509072931 49 315 0.9 1.7 0.00 0.00 0.00 92 1010.3
20260509072421 49 327 0.0 1.7 0.00 0.00 0.00 92 1010.1
20260509071932 49 327 0.0 0.9 0.00 0.00 0.00 92 1010.1
20260509071419 49 327 0.0 1.7 0.00 0.00 0.00 92 1010.0
20260509070930 49 327 0.0 1.7 0.00 0.00 0.00 92 1010.0
20260509070424 49 327 0.0 0.9 0.00 0.00 0.00 91 1009.9
20260509065927 49 327 0.0 0.9 0.00 0.00 0.00 91 1009.8
20260509065417 49 327 0.0 0.9 0.00 0.00 0.00 91 1009.8
20260509064929 49 327 0.0 1.7 0.00 0.00 0.00 91 1009.8
20260509064420 49 327 0.9 1.7 0.00 0.00 0.00 91 1009.8
20260509063931 49 327 0.0 0.9 0.00 0.00 0.00 91 1009.9
20260509063421 49 327 0.0 1.7 0.00 0.00 0.00 91 1009.9
20260509062929 49 327 0.9 1.7 0.00 0.00 0.00 91 1009.9
20260509062419 49 327 0.0 0.9 0.00 0.00 0.00 91 1010.0
20260509061932 49 327 0.9 0.9 0.00 0.00 0.00 91 1010.1
20260509061421 49 327 0.0 0.9 0.00 0.00 0.00 90 1010.2
20260509060931 49 327 0.0 0.9 0.00 0.00 0.00 90 1010.3
20260509060422 49 327 0.0 1.7 0.00 0.00 0.00 90 1010.4
20260509055929 49 327 0.0 1.7 0.00 0.00 0.00 91 1010.4
20260509055419 49 327 0.9 1.7 0.00 0.00 0.00 91 1010.5
20260509054947 49 327 0.0 1.7 0.00 0.00 0.00 91 1010.6
20260509054418 49 327 0.9 1.7 0.00 0.00 0.00 91 1010.7
20260509053927 49 327 0.9 1.7 0.00 0.00 0.00 91 1010.8
20260509053419 50 327 0.9 1.7 0.00 0.00 0.00 91 1010.8
20260509052930 50 327 0.0 0.9 0.00 0.00 0.00 90 1010.9
20260509052425 50 327 0.0 0.0 0.00 0.00 0.00 90 1010.8
20260509051917 50 327 0.0 0.9 0.00 0.00 0.00 90 1010.9
20260509051428 50 327 0.0 0.9 0.00 0.00 0.00 90 1011.0
20260509050933 50 327 0.0 0.9 0.00 0.00 0.00 90 1011.0
20260509050423 50 327 0.0 0.9 0.00 0.00 0.00 90 1011.1
20260509045949 50 327 0.0 0.9 0.00 0.00 0.00 90 1011.1
20260509045421 50 327 0.0 0.9 0.00 0.00 0.00 89 1011.0